Salinas, CA

6:28 AM PDT on October 19, 2017 (GMT -0700)
Salinas Municipal

Weather History for KSNS - September, 2011

Change the Weather History Date:

Friday, September 23, 2011

  Actual Average Record
Temperature  
Mean Temperature 69 °F 64 °F  
Max Temperature 83 °F 74 °F 99 °F (1978)
Min Temperature 54 °F 54 °F 40 °F (1941)
Degree Days  
Heating Degree Days 0 2  
Month to date heating degree days 46 46  
Since 1 July heating degree days 174 181  
Cooling Degree Days 4 1  
Month to date cooling degree days 19 23  
Year to date cooling degree days 46 92  
Growing Degree Days 18 (Base 50)    
Moisture  
Dew Point 55 °F    
Average Humidity 72    
Maximum Humidity 100    
Minimum Humidity 43    
Precipitation  
Precipitation 0.02 in 0.00 in 0.51 in (1982)
Month to date precipitation 0.02 0.10  
Year to date precipitation 9.88 8.85  
Since 1 July precipitation 0.04  
Sea Level Pressure  
Sea Level Pressure 29.98 in    
Wind  
Wind Speed 5 mph (NE)    
Max Wind Speed 15 mph    
Max Gust Speed 20 mph    
Visibility 5 miles    
Events Fog    
T = Trace of Precipitation, MM = Missing Value Source: NWS Daily Summary

Daily Weather History Graph

Daily Weather History Graph

Search for Another Location

Airport or City:

Trip Planner

Search our weather history database for the weather conditions in past years. The results will help you decide how hot, cold, wet, or windy it might be!

Date:

Astronomy

Sep. 23, 2011 Rise Set
Actual Time 6:55 AM PDT 7:02 PM PDT
Civil Twilight 6:29 AM PDT 7:27 PM PDT
Nautical Twilight 5:59 AM PDT 7:57 PM PDT
Astronomical Twilight 5:28 AM PDT 8:28 PM PDT
Moon 2:34 AM PDT (9/23) 4:30 PM PDT (9/23)
Length of Visible Light 12h 58m
Length of Day
12h 07m
Waning Crescent, 18% of the Moon is Illuminated
Sep 23
Waning Crescent
Sep 27
New
Oct 3
First Quarter
Oct 11
Full
Oct 19
Last Quarter

Hourly Weather History & Observations

Time (PDT) Temp. Heat Index Dew Point Humidity Pressure Visibility Wind Dir Wind Speed Gust Speed Precip Events Conditions
12:53 AM 55.4 °F - 53.6 °F 94% 29.99 in 3.0 mi ESE 3.5 mph - N/A   Overcast
12:59 AM 55.4 °F - 53.6 °F 94% 29.99 in 1.8 mi ESE 3.5 mph - N/A   Overcast
1:51 AM 55.4 °F - 53.6 °F 94% 29.99 in 0.5 mi East 4.6 mph - N/A Fog Fog
1:53 AM 55.0 °F - 53.1 °F 93% 30.01 in 0.5 mi East 4.6 mph - N/A Fog Fog
2:38 AM 55.4 °F - 53.6 °F 94% 29.98 in 1.8 mi ESE 3.5 mph - N/A   Overcast
2:53 AM 55.9 °F - 54.0 °F 93% 30.01 in 1.5 mi ESE 6.9 mph - N/A   Overcast
3:11 AM 55.4 °F - 53.6 °F 94% 29.97 in 0.8 mi ESE 5.8 mph - N/A   Overcast
3:21 AM 55.4 °F - 53.6 °F 94% 29.97 in 1.0 mi ESE 4.6 mph - N/A   Overcast
3:29 AM 55.4 °F - 53.6 °F 94% 29.97 in 0.8 mi Calm Calm - N/A   Mist
3:53 AM 55.0 °F - 55.0 °F 100% 29.99 in 0.8 mi Calm Calm - N/A   Mist
4:27 AM 55.4 °F - 53.6 °F 94% 29.97 in 1.2 mi ESE 3.5 mph - N/A   Overcast
4:46 AM 55.4 °F - 53.6 °F 94% 29.97 in 0.5 mi East 4.6 mph - N/A Fog Fog
4:53 AM 55.4 °F - 53.6 °F 94% 29.96 in 0.8 mi East 3.5 mph - N/A   Mist
5:18 AM 55.4 °F - 53.6 °F 94% 29.96 in 0.2 mi Calm Calm - N/A Fog Fog
5:53 AM 55.0 °F - 53.1 °F 93% 30.01 in 0.2 mi ESE 4.6 mph - N/A Fog Fog
6:53 AM 55.0 °F - 54.0 °F 96% 30.01 in 0.5 mi Calm Calm - N/A Fog Fog
7:28 AM 55.4 °F - 55.4 °F 100% 29.99 in 1.2 mi Calm Calm - N/A   Overcast
7:53 AM 55.9 °F - 55.0 °F 97% 30.02 in 1.8 mi Calm Calm - N/A   Overcast
8:00 AM 55.4 °F - 53.6 °F 94% 29.99 in 2.5 mi Calm Calm - N/A   Overcast
8:25 AM 55.4 °F - 55.4 °F 100% 29.99 in 4.0 mi Calm Calm - N/A   Mostly Cloudy
8:53 AM 57.9 °F - 55.0 °F 90% 30.02 in 5.0 mi Calm Calm - N/A   Mostly Cloudy
9:02 AM 59.0 °F - 55.4 °F 88% 29.99 in 5.0 mi NE 3.5 mph - N/A   Scattered Clouds
9:53 AM 64.0 °F - 55.0 °F 73% 30.03 in 7.0 mi Calm Calm - N/A   Clear
10:53 AM 72.0 °F - 55.0 °F 55% 30.02 in 8.0 mi Variable 3.5 mph - N/A   Clear
11:53 AM 77.0 °F - 55.4 °F 47% 29.97 in 9.0 mi Calm Calm - N/A   Clear
12:53 PM 82.0 °F 82.0 °F 57.9 °F 44% 29.98 in 10.0 mi WNW 5.8 mph - N/A   Clear
1:53 PM 78.1 °F - 57.0 °F 48% 29.96 in 10.0 mi WNW 10.4 mph - N/A   Clear
2:53 PM 71.1 °F - 57.0 °F 61% 29.95 in 10.0 mi West 9.2 mph - N/A   Clear
3:53 PM 66.9 °F - 55.0 °F 66% 29.95 in 10.0 mi WNW 11.5 mph - N/A   Clear
4:53 PM 68.0 °F - 55.0 °F 63% 29.95 in 10.0 mi WNW 11.5 mph - N/A   Clear
6:53 PM 63.0 °F - 55.0 °F 75% 29.92 in 10.0 mi WNW 8.1 mph - N/A   Clear
7:53 PM 60.1 °F - 54.0 °F 80% 29.93 in 10.0 mi West 5.8 mph - N/A   Clear
8:53 PM 60.1 °F - 55.0 °F 83% 29.94 in 10.0 mi West 5.8 mph - N/A   Clear
9:18 PM 57.2 °F - 55.4 °F 94% 29.91 in 10.0 mi West 12.7 mph 17.3 mph N/A   Scattered Clouds
9:32 PM 57.2 °F - 55.4 °F 94% 29.93 in 8.0 mi West 9.2 mph - N/A   Mostly Cloudy
9:53 PM 57.9 °F - 55.9 °F 93% 29.99 in 8.0 mi Variable 3.5 mph - N/A   Overcast
10:53 PM 59.0 °F - 55.9 °F 90% 29.96 in 9.0 mi West 8.1 mph - 0.00 in   Overcast
11:53 PM 57.9 °F - 55.9 °F 93% 29.98 in 5.0 mi NNW 5.8 mph - N/A   Overcast